Погода в Плесецке

Россия / Архангельская область     62°42′33″N   40°17′06″E
темп.,
°C
ветер,
м/с
пор.,
м/с
влажн.,
%
обл.,
%
осадки,
мм/ч
давл.,
гПа
погр.,
м
12 мая, ср
ср1200:00+14ююз41376100 0.0 1024364
03:00+12ююз31184100 0.0 1025266
06:00+13ююз4117846 0.0 1025287
09:00+19юз475547 0.0 1025654
12:00+23юз4642100 0.0 10251429
15:00+24юз35375 0.0 10241681
18:00+23ююз24445 0.0 1023912
21:00+17ю23650 0.0 102446
13 мая, чт
чт1300:00+14ю24720 0.0 102460
03:00+13ююз25821 0.0 102481
06:00+15ююз27710 0.0 1023189
09:00+20ююз35525 0.0 1023598
12:00+24ююз46399 0.0 10211904
15:00+24ююз353950 0.0 1020934
18:00+20ююв255813 0.0 1019182
21:00+16ююв277580 0.1 1018123
14 мая, пт
пт1400:00+14ююв26815 0.0 1017105
03:00+13ююв29865 0.0 1015179
06:00+15ю31081100 0.1 1014327
09:00+14ююв31093100 2.5 1013603
12:00+18ююз487163 0.9 10131235
15:00+20ююз69375 0.9 10132156
18:00+17юз5115544 0.0 10131706
21:00+13юз310788 0.3 1013783
15 мая, сб
сб1500:00+10ююз289199 0.1 1013238
03:00+10ююз279199 0.1 1013186
06:00+12юз247846 0.0 1013205
09:00+17юз235624 0.0 1013955
12:00+21зюз2342100 0.0 10131925
15:00+22ююв223824 0.0 10121966
18:00+21вюв2444100 0.0 1010872
21:00+16всв3764100 0.0 1009281
16 мая, вс
вс1600:00+14всв41182100 0.8 1007517
03:00+13всв3795100 3.6 1005244
06:00+14юв3795100 2.8 1004601
09:00+16ю368296 3.1 1003705
12:00+19юз467199 2.4 10021055
15:00+18юз4776100 5.3 1002850
18:00+13зюз399195 2.5 1003696
21:00+10зюз4793100 2.7 1004796